Weather Roundup
Issued by NWS Springfield, MO

Home | Current Version | Previous Version | Text Only | Print | Product List | Glossary On
Versions: 1 2 3 4 5 6 7 8 9 10 11 12 13 14 15 16 17 18 19 20 21 22 23 24 25 26 27 28 29 30 31 32 33 34 35 36 37 38 39 40 41 42 43 44 45 46 47 48 49 50
000
NZUS99 KSGF 280810
HRRSGF

HOURLY WEATHER
NATIONAL WEATHER SERVICE SPRINGFIELD MO
300 AM CDT FRI AUG 28 2015

......SGF CWA......

CITY           SKY/WX    TMP DP  RH WIND       PRES   REMARKS
SPRINGFIELD    PTCLDY    65  59  81 S8        30.05S
JOPLIN         PTCLDY    67  63  87 S8        30.01S
WEST PLAINS    CLEAR     62  56  80 CALM      30.09F
ROLLA          PTCLDY    61  57  87 SE7       30.07R
OSAGE BEACH    MOCLDY    63  57  82 SE3       30.06S
BRANSON        CLOUDY    59  57  94 CALM      30.08R

......SURROUNDING SGF CWA......

CITY           SKY/WX    TMP DP  RH WIND       PRES   REMARKS
CHANUTE        CLOUDY    68  64  87 SE8       29.99S
COFFEYVILLE    MOCLDY    66  64  93 S6        29.98F
EMPORIA        CLOUDY    69  63  81 S12       29.96F
GROVE OK       CLEAR     64  64 100 SE3       30.02F
ROGERS AR      PTCLDY    65  61  87 SE8       30.06S
SILOAM SPRINGS CLEAR     64  55  72 S3        30.03S
NEAR YELLVILLE FAIR      61  55  82 CALM      30.04F

......KANSAS AND MISSOURI......

CITY           SKY/WX    TMP DP  RH WIND       PRES   REMARKS
KANSAS CTY INT CLOUDY    70  64  81 S12       29.97S
DOWNTOWN KC    CLOUDY    72  66  81 S7        29.97F
COLUMBIA       PTCLDY    62  60  93 SE6       30.07S
SEDALIA        CLOUDY    65  60  84 SE6       30.04S
ST JOSEPH      CLOUDY    69  66  90 S7        29.97R
ST LOUIS       PTCLDY    64  58  80 SE5       30.10S
SPIRIT OF STL  CLEAR     59  58  96 CALM      30.09R
KIRKSVILLE     MOCLDY    60  57  89 SE7       30.07F
WICHITA        CLOUDY    74  70  87 S9        29.96F
TOPEKA         CLOUDY    70  64  81 SE8       29.95F
OLATHE         CLOUDY    67  66  97 S9        29.98S

......TENNESSEE......

CITY           SKY/WX    TMP DP  RH WIND       PRES   REMARKS
MEMPHIS        CLEAR     68  59  73 VRB3      30.04F
NASHVILLE      CLEAR     65  56  72 NE3       30.08F

......ARKANSAS.......

CITY           SKY/WX    TMP DP  RH WIND       PRES   REMARKS
FAYETTEVILLE   CLEAR     65  60  84 CALM      30.05S
FT SMITH       PTCLDY    66  62  87 E6        30.03S
LITTLE ROCK    CLEAR     65  61  87 CALM      30.05F

......OKLAHOMA.......

CITY           SKY/WX    TMP DP  RH WIND       PRES   REMARKS
TULSA          MOCLDY    71  67  87 S9        29.98S
PONCA CITY     CLOUDY    74  66  76 S3        29.98R
MCALESTER      PTCLDY    72  62  71 SE6       30.02S
OKLAHOMA CITY  CLOUDY    75  63  66 S10       29.98S

......IOWA............

CITY           SKY/WX    TMP DP  RH WIND       PRES   REMARKS
DES MOINES     CLOUDY    66  59  78 SE7       30.02S
QUAD CITIES    CLOUDY    62  58  86 SE3       30.08F

......ILLINOIS........

CITY           SKY/WX    TMP DP  RH WIND       PRES   REMARKS
QUINCY         CLEAR     61  57  87 SE7       30.08F
CHICAGO        MOCLDY    59  56  89 SE3       30.12S




USA.gov is the U.S. government's official web portal to all federal, state and local government web resources and services.